map of HFA home
HFA - Airport
Location
City:  Haifa, Israel
Name:Haifa International Airport
Old (Alt.):Uri Michaeli Airport
ICAO:LLHA
IATA:HFA

Details
Type:Airport (Aerodrome, Airfield)
Use:Public/Civil, Military, International (customs port of entry)
Latitude:3248'34"N (32.809444)
Longitude:3502'35"E (35.043056)
Datum:WGS 1984
Elevation:28 ft (9 m)
Variation:4.79E (WMM2015 magnetic declination)
0.08 annual change
Runways:1
Longest:4324 × 98 ft (1318 × 30 m), paved

Time
Time Zone:UTC+2 (DST+3)
Local Time:

Weather
METAR:LLHA 201650Z VRB02KT 9999 BKN047 15/07 Q1023
TAF:LLHA 201111Z 2012/2112 29007KT 9999 BKN045
BECMG 2015/2017 VRB04KT SCT045
BECMG 2018/2021 12008KT CAVOK PROB40 2021/2107 14015KT TX18/2012Z TN09/2100Z

Related Locations
Nearby:
Farthest:RVV: 11795 mi / 18982 km
Raivavae, Tubuai Islands, Austral Islands, PF

Find:

   beyond  
but within

Other Information
Maps:
NOTAMs:
Links:
Sources:

  
flag of Israel
flag of Israeli Air Force
  

Sectional Chart

Flight Planning
at skyvector.com

Satellite Image

Google Maps Satellite view

 

Copyright © 2004-2018 Karl L. Swartz. All rights reserved.
The Great Circle Mapper name and logo are trademarks of the Great Circle Mapper.
All other trademarks mentioned herein belong to their respective owners.
Please see credits for attibutions and further copyright information.

  Follow gcmap on Facebook Follow gcmap on Twitter Follow gcmap on Google+ GCmap on LinkedIn

hCard Microformat

Geo Microformat